BEIDOU-3 M7 (C27)

Last updated on Thu Nov 21 2024 00:03:16 GMT+0000 (Coordinated Universal Time)

1 43107U 18003A 24325.35098864 -.00000078 00000+0 00000+0 0 9990 2 43107 54.8198 322.2406 0002272 63.0970 296.9330 1.86232455 46669
UTC large
Height (km)
Speed (km/s)
/
Latitude / Longitude
Inclination (degrees)
Orbital Period (minutes)
Azimuth
Elevation
Range (km)
Doppler Factor

Next 0 passes for location: London (51.5072 / 0.1276)

Sorry there are no passes over London.